CW8468 Weather Reports


Display with metric or nautical units.
time (UTC)temp
F
wind
direction
speed
MPH
gust
MPH
rain 1hr
in
rain 24hr
in
rain mn
in
humidity
%
barometer
mb
20260902130501 80 258 2.0 7.0 0.00 0.00 0.00 86 1014.0
20260902130023 80 248 2.0 7.0 0.00 0.00 0.00 86 1014.1
20260902125501 80 266 1.0 4.0 0.00 0.00 0.00 86 1014.0
20260902125002 80 229 1.0 7.0 0.00 0.00 0.00 87 1014.0
20260902124517 80 307 2.0 7.0 0.00 0.00 0.00 87 1013.9
20260902124001 80 160 1.0 5.0 0.00 0.00 0.00 87 1013.8
20260902123501 80 214 2.0 7.0 0.00 0.00 0.00 87 1013.6
20260902123027 80 190 2.0 7.0 0.00 0.00 0.00 87 1013.5
20260902122500 80 150 2.0 6.0 0.00 0.00 0.00 87 1013.2
20260902122002 80 266 2.0 6.0 0.00 0.00 0.00 87 1013.0
20260902121516 80 163 2.0 8.0 0.00 0.00 0.00 86 1012.9
20260902121002 80 199 2.0 8.0 0.00 0.00 0.00 86 1012.8
20260902120501 80 221 2.0 6.0 0.00 0.00 0.00 86 1012.7
20260902115501 80 267 2.0 8.0 0.00 0.00 0.00 86 1012.8
20260902115001 80 193 2.0 8.0 0.00 0.00 0.00 86 1012.8
20260902114516 80 224 2.0 8.0 0.00 0.00 0.00 86 1013.0
20260902114001 80 231 2.0 8.0 0.00 0.00 0.00 86 1012.9
20260902113500 80 280 2.0 5.0 0.00 0.00 0.00 86 1012.8
20260902113024 80 227 2.0 5.0 0.00 0.00 0.00 85 1012.9
20260902112002 80 231 2.0 7.0 0.00 0.00 0.00 85 1012.7
20260902110500 80 234 2.0 4.0 0.00 0.00 0.00 85 1012.7
20260902110024 80 263 2.0 4.0 0.00 0.00 0.00 85 1012.8
20260902105500 80 262 2.0 4.0 0.00 0.00 0.00 85 1012.8
20260902104515 80 243 2.0 5.0 0.00 0.00 0.00 84 1012.9
20260902104000 80 182 2.0 9.0 0.00 0.00 0.00 84 1012.9
20260902103459 80 278 2.0 9.0 0.00 0.00 0.00 84 1012.9
20260902103023 81 353 1.0 8.0 0.00 0.00 0.00 84 1012.9
20260902102459 81 240 2.0 8.0 0.00 0.00 0.00 84 1012.9
20260902101515 81 250 2.0 4.0 0.00 0.00 0.00 84 1012.9
20260902101001 81 226 2.0 4.0 0.00 0.00 0.00 84 1012.8
20260902100500 81 200 2.0 7.0 0.00 0.00 0.00 83 1012.8
20260902095500 81 217 3.0 9.0 0.00 0.00 0.00 83 1012.7
20260902094514 81 247 2.0 6.0 0.00 0.00 0.00 83 1012.8
20260902093027 81 215 2.0 5.0 0.00 0.00 0.00 82 1012.8
20260902092001 81 263 2.0 5.0 0.00 0.00 0.00 82 1012.7
20260902091514 81 274 2.0 5.0 0.00 0.00 0.00 82 1012.8
20260902091000 81 260 2.0 6.0 0.00 0.00 0.00 82 1012.8
20260902090459 81 264 2.0 8.0 0.00 0.00 0.00 81 1012.8
20260902090028 81 228 2.0 8.0 0.00 0.00 0.00 81 1012.7
20260902085500 81 229 2.0 5.0 0.00 0.00 0.00 81 1012.8
20260902084514 81 208 3.0 8.0 0.00 0.00 0.00 80 1012.7
20260902084001 81 243 3.0 9.0 0.00 0.00 0.00 80 1012.8
20260902083500 81 239 2.0 9.0 0.00 0.00 0.00 80 1012.8
20260902083029 81 259 2.0 6.0 0.00 0.00 0.00 79 1012.8
20260902082459 81 217 1.0 4.0 0.00 0.00 0.00 79 1012.9
20260902081001 81 247 1.0 5.0 0.00 0.00 0.00 77 1012.8
20260902080459 81 253 1.0 5.0 0.00 0.00 0.00 77 1012.8
20260902075458 81 251 1.0 4.0 0.00 0.00 0.00 76 1012.8
20260902075000 81 240 1.0 4.0 0.00 0.00 0.00 76 1012.9
20260902074000 80 353 1.0 3.0 0.00 0.00 0.00 76 1012.8
20260902073459 80 237 0.0 2.0 0.00 0.00 0.00 76 1012.9
20260902073022 80 243 0.0 2.0 0.00 0.00 0.00 76 1013.0
20260902072458 80 297 1.0 2.0 0.00 0.00 0.00 76 1013.0
20260902071514 80 218 0.0 3.0 0.00 0.00 0.00 76 1013.0
20260902071000 80 300 0.0 1.0 0.00 0.00 0.00 76 1013.0
20260902070459 80 300 0.0 1.0 0.00 0.00 0.00 76 1012.9
20260902070020 80 301 0.0 1.0 0.00 0.00 0.00 76 1012.9
20260902065459 80 306 0.0 1.0 0.00 0.00 0.00 75 1013.0
20260902065000 80 312 0.0 2.0 0.00 0.00 0.00 76 1012.9
20260902064514 80 312 0.0 2.0 0.00 0.00 0.00 75 1012.8
20260902064000 80 217 0.0 1.0 0.00 0.00 0.00 75 1012.9
20260902063500 80 217 0.0 1.0 0.00 0.00 0.00 75 1012.9
20260902063024 80 217 0.0 1.0 0.00 0.00 0.00 75 1012.8
20260902062458 80 217 0.0 1.0 0.00 0.00 0.00 75 1012.8
20260902062003 80 217 0.0 3.0 0.00 0.00 0.00 75 1012.7
20260902061514 80 217 0.0 3.0 0.00 0.00 0.00 74 1012.6
20260902061000 80 243 1.0 3.0 0.00 0.00 0.00 75 1012.6
20260902060459 80 180 1.0 3.0 0.00 0.00 0.00 75 1012.5
20260902060022 80 223 0.0 3.0 0.00 0.00 0.00 75 1012.5
20260902055459 80 243 0.0 2.0 0.00 0.00 0.00 75 1012.5
20260902055000 80 275 0.0 2.0 0.00 0.00 0.00 76 1012.7
20260902054513 80 269 0.0 1.0 0.00 0.00 0.00 76 1012.7
20260902054000 80 249 0.0 1.0 0.00 0.00 0.00 76 1012.6
20260902053459 80 249 0.0 4.0 0.00 0.00 0.00 75 1012.5
20260902052458 80 237 0.0 2.0 0.00 0.00 0.00 75 1012.6
20260902051959 81 243 0.0 2.0 0.00 0.00 0.00 75 1012.7
20260902051514 80 243 1.0 2.0 0.00 0.00 0.00 75 1012.8
20260902051000 81 233 0.0 3.0 0.00 0.00 0.00 75 1012.8
20260902050459 81 262 1.0 3.0 0.00 0.00 0.00 75 1012.8
20260902050024 81 236 1.0 4.0 0.00 0.00 0.00 75 1012.9
20260902045504 81 241 1.0 4.0 0.00 0.00 0.00 76 1012.9
20260902045005 81 241 1.0 3.0 0.00 0.00 0.00 76 1013.0
20260902044519 81 230 1.0 3.0 0.00 0.00 0.00 76 1013.0
20260902044005 80 234 0.0 3.0 0.00 0.00 0.00 76 1013.0
20260902043503 81 236 0.0 2.0 0.00 0.00 0.00 76 1013.0
20260902043030 81 236 0.0 2.0 0.00 0.00 0.00 76 1013.1
20260902042503 81 236 0.0 2.0 0.00 0.00 0.00 75 1013.1
20260902042005 81 238 0.0 2.0 0.00 0.00 0.00 75 1013.1
20260902041519 81 238 0.0 3.0 0.00 0.00 0.00 75 1013.1
20260902041006 81 223 0.0 3.0 0.00 0.00 0.00 75 1013.1
20260902040504 81 247 0.0 2.0 0.00 0.00 0.00 74 1013.1
20260902040029 81 247 1.0 3.0 0.00 0.00 0.00 74 1013.1
20260902035004 81 239 0.0 2.0 0.00 0.00 0.00 75 1013.2
20260902034005 81 320 0.0 1.0 0.00 0.00 0.00 75 1013.2
20260902033504 81 320 0.0 1.0 0.00 0.00 0.00 74 1013.2
20260902032504 81 320 0.0 1.0 0.00 0.00 0.00 74 1013.2
20260902032005 81 320 0.0 1.0 0.00 0.00 0.00 74 1013.2
20260902031006 81 320 0.0 1.0 0.00 0.00 0.00 73 1013.0
20260902030504 81 320 0.0 1.0 0.00 0.00 0.00 73 1012.8
20260902030027 81 320 0.0 2.0 0.00 0.00 0.00 73 1012.8
20260902025503 81 320 0.0 2.0 0.00 0.00 0.00 73 1012.8
20260902025005 81 283 0.0 1.0 0.00 0.00 0.00 74 1012.8
20260902024519 81 283 0.0 2.0 0.00 0.00 0.00 74 1012.7
20260902024005 81 308 0.0 0.0 0.00 0.00 0.00 73 1012.6
20260902023504 82 308 0.0 0.0 0.00 0.00 0.00 73 1012.6
20260902023024 82 308 0.0 1.0 0.00 0.00 0.00 73 1012.5
20260902022504 82 308 0.0 1.0 0.00 0.00 0.00 73 1012.4
20260902022006 82 308 0.0 1.0 0.00 0.00 0.00 73 1012.3
20260902021520 82 308 0.0 1.0 0.00 0.00 0.00 73 1012.3
20260902021005 82 308 0.0 1.0 0.00 0.00 0.00 73 1012.4
20260902020503 82 308 0.0 1.0 0.00 0.00 0.00 73 1012.3
20260902020028 82 308 0.0 1.0 0.00 0.00 0.00 73 1012.0
20260902015504 82 308 0.0 1.0 0.00 0.00 0.00 73 1011.9
20260902015005 82 308 0.0 1.0 0.00 0.00 0.00 72 1011.9
20260902014519 82 308 0.0 1.0 0.00 0.00 0.00 72 1011.8
20260902014005 82 308 0.0 1.0 0.00 0.00 0.00 72 1011.7
20260902013503 82 308 1.0 2.0 0.00 0.00 0.00 72 1011.6
20260902012504 82 30 1.0 2.0 0.00 0.00 0.00 72 1011.6
20260902012004 82 348 1.0 2.0 0.00 0.00 0.00 71 1011.6
20260902011518 82 341 0.0 2.0 0.00 0.00 0.00 71 1011.6
20260902011004 82 358 0.0 1.0 0.00 0.00 0.00 71 1011.7
20260902010504 83 353 0.0 1.0 0.00 0.00 0.00 71 1011.7
20260902010027 83 353 1.0 2.0 0.00 0.00 0.00 71 1011.7
20260902005003 83 329 1.0 3.0 0.00 0.00 0.00 70 1011.7
20260902004518 83 348 2.0 4.0 0.00 0.00 0.00 70 1011.7
20260902003502 83 10 1.0 4.0 0.00 0.00 0.00 71 1011.9
20260902003024 83 19 1.0 3.0 0.00 0.00 0.00 71 1011.9
20260902002503 83 2 1.0 3.0 0.00 0.00 0.00 71 1011.8
20260902002003 83 353 1.0 4.0 0.00 0.00 0.00 71 1011.8
20260902001517 83 353 2.0 4.0 0.00 0.00 0.00 71 1011.8
20260902001004 83 34 1.0 4.0 0.00 0.00 0.00 70 1011.7
20260902000503 83 330 2.0 4.0 0.00 0.00 0.00 70 1011.6
20260902000027 83 332 2.0 4.0 0.00 0.00 0.00 70 1011.6
20260901235003 83 2 3.0 8.0 0.00 0.00 0.00 69 1011.8
20260901234517 84 15 3.0 8.0 0.00 0.00 0.00 69 1011.8
20260901234003 84 2 3.0 8.0 0.00 0.00 0.00 69 1011.9
20260901232502 84 20 4.0 9.0 0.00 0.00 0.00 68 1012.0
20260901232003 84 348 4.0 9.0 0.00 0.00 0.00 68 1012.0
20260901231004 84 317 4.0 10.0 0.00 0.00 0.00 68 1012.1
20260901225004 86 53 6.0 15.0 0.00 0.00 0.00 67 1012.2
20260901224517 87 25 6.0 15.0 0.00 0.00 0.00 66 1012.4
20260901224003 88 42 5.0 15.0 0.00 0.00 0.00 65 1012.4
20260901223026 91 30 3.0 9.0 0.00 0.00 0.00 59 1012.1
20260901222503 91 5 2.0 9.0 0.00 0.00 0.00 59 1012.0
20260901222003 91 348 2.0 5.0 0.00 0.00 0.00 58 1012.0
20260901221518 91 20 2.0 4.0 0.00 0.00 0.00 59 1011.9
20260901221004 91 89 1.0 4.0 0.00 0.00 0.00 59 1012.0
20260901220502 90 126 1.0 3.0 0.00 0.00 0.00 61 1012.0
20260901220025 90 245 1.0 3.0 0.00 0.00 0.00 60 1012.0
20260901215503 90 35 1.0 5.0 0.00 0.00 0.00 58 1012.1
20260901214517 90 58 1.0 4.0 0.00 0.00 0.00 59 1012.2
20260901214004 90 35 2.0 4.0 0.00 0.00 0.00 60 1012.3
20260901213503 89 353 2.0 4.0 0.00 0.00 0.00 60 1012.3
20260901213026 89 348 2.0 5.0 0.00 0.00 0.00 60 1012.4
20260901212503 89 358 2.0 5.0 0.00 0.00 0.00 60 1012.4
20260901212004 90 15 1.0 3.0 0.00 0.00 0.00 60 1012.4
20260901211517 90 341 1.0 4.0 0.00 0.00 0.00 60 1012.3
20260901210504 90 52 1.0 4.0 0.00 0.00 0.00 59 1012.2
20260901210023 89 45 1.0 3.0 0.00 0.00 0.00 60 1012.2
20260901205502 89 324 2.0 4.0 0.00 0.00 0.00 60 1012.1
20260901205003 90 249 2.0 4.0 0.00 0.00 0.00 59 1012.2
20260901204516 90 281 2.0 4.0 0.00 0.00 0.00 60 1012.2
20260901204005 89 322 1.0 3.0 0.00 0.00 0.00 60 1012.2
20260901203501 89 263 1.0 4.0 0.00 0.00 0.00 62 1012.2
20260901203026 89 63 2.0 4.0 0.00 0.00 0.00 62 1012.4
20260901202501 89 15 2.0 4.0 0.00 0.00 0.00 64 1012.6
20260901202003 88 13 1.0 4.0 0.00 0.00 0.00 65 1012.8
20260901201516 88 25 1.0 4.0 0.00 0.00 0.00 64 1012.9
20260901201002 88 84 2.0 4.0 0.00 0.00 0.00 65 1013.1
20260901200502 88 4 2.0 5.0 0.00 0.00 0.00 64 1013.3
20260901200029 88 86 2.0 6.0 0.00 0.00 0.00 63 1013.5
20260901195003 88 4 3.0 8.0 0.00 0.00 0.00 63 1013.6
20260901194517 88 10 3.0 8.0 0.00 0.00 0.00 63 1013.6
20260901194004 89 31 2.0 4.0 0.00 0.00 0.00 63 1013.6
20260901193026 89 342 2.0 7.0 0.00 0.00 0.00 61 1013.6
20260901192502 89 109 2.0 5.0 0.00 0.00 0.00 61 1013.6
20260901192003 89 15 2.0 4.0 0.00 0.00 0.00 62 1013.6
20260901191518 89 77 2.0 6.0 0.00 0.00 0.00 60 1013.5
20260901190504 89 341 2.0 5.0 0.00 0.00 0.00 59 1013.6
20260901185501 89 329 1.0 2.0 0.00 0.00 0.00 61 1013.6
20260901184515 89 48 3.0 6.0 0.00 0.00 0.00 59 1013.7
20260901183501 90 342 2.0 5.0 0.00 0.00 0.00 60 1013.8
20260901183025 89 168 3.0 6.0 0.00 0.00 0.00 60 1013.8
20260901182002 90 348 3.0 8.0 0.00 0.00 0.00 60 1014.1
20260901180500 89 331 3.0 6.0 0.00 0.00 0.00 61 1014.2
20260901180026 89 11 3.0 6.0 0.00 0.00 0.00 62 1014.2
20260901175003 88 36 3.0 9.0 0.00 0.00 0.00 62 1014.4
20260901174517 89 331 3.0 9.0 0.00 0.00 0.00 63 1014.5
20260901173500 89 328 3.0 8.0 0.00 0.00 0.00 65 1014.7
20260901173026 88 17 3.0 8.0 0.00 0.00 0.00 66 1014.8
20260901172502 88 353 3.0 6.0 0.00 0.00 0.00 66 1014.9
20260901172004 88 44 4.0 7.0 0.00 0.00 0.00 66 1015.0
20260901171516 88 100 4.0 11.0 0.00 0.00 0.00 66 1015.3
20260901171002 88 337 4.0 11.0 0.00 0.00 0.00 65 1015.3
20260901170502 88 4 4.0 10.0 0.00 0.00 0.00 64 1015.4
20260901170020 88 323 3.0 8.0 0.00 0.00 0.00 64 1015.4
20260901165500 87 19 3.0 8.0 0.00 0.00 0.00 65 1015.4
20260901165000 87 23 3.0 8.0 0.00 0.00 0.00 66 1015.4
20260901164516 87 40 2.0 5.0 0.00 0.00 0.00 67 1015.4
20260901164001 87 353 2.0 6.0 0.00 0.00 0.00 68 1015.4
20260901163500 87 257 3.0 8.0 0.00 0.00 0.00 67 1015.4
20260901162500 87 43 3.0 6.0 0.00 0.00 0.00 67 1015.4
20260901162001 87 40 3.0 6.0 0.00 0.00 0.00 68 1015.4
20260901161514 87 358 3.0 6.0 0.00 0.00 0.00 68 1015.4
20260901161001 87 72 3.0 8.0 0.00 0.00 0.00 68 1015.3
20260901160500 87 342 3.0 8.0 0.00 0.00 0.00 68 1015.2
20260901160023 87 28 3.0 6.0 0.00 0.00 0.00 68 1015.2
20260901155500 86 296 3.0 6.0 0.00 0.00 0.00 69 1015.2
20260901154516 86 301 3.0 8.0 0.00 0.00 0.00 69 1015.2
20260901154002 86 340 3.0 8.0 0.00 0.00 0.00 69 1015.2
20260901153020 86 41 3.0 6.0 0.00 0.00 0.00 70 1015.2
20260901152500 86 343 3.0 6.0 0.00 0.00 0.00 70 1015.2
20260901152001 86 55 3.0 6.0 0.00 0.00 0.00 70 1015.1
20260901151001 86 31 3.0 8.0 0.00 0.00 0.00 71 1015.2
20260901150501 86 341 3.0 6.0 0.00 0.00 0.00 71 1015.3
20260901150024 86 23 3.0 6.0 0.00 0.00 0.00 72 1015.3
20260901145500 86 323 2.0 8.0 0.00 0.00 0.00 72 1015.3
20260901145001 85 306 2.0 6.0 0.00 0.00 0.00 72 1015.3
20260901144515 86 320 3.0 8.0 0.00 0.00 0.00 73 1015.3
20260901143500 85 300 3.0 8.0 0.00 0.00 0.00 75 1015.3
20260901143021 84 4 3.0 8.0 0.00 0.00 0.00 76 1015.3
20260901142500 84 319 3.0 9.0 0.00 0.00 0.00 77 1015.3
20260901141515 83 52 2.0 5.0 0.00 0.00 0.00 79 1015.4
20260901140459 82 315 3.0 6.0 0.00 0.00 0.00 80 1015.3
20260901140024 82 6 2.0 6.0 0.00 0.00 0.00 81 1015.4
20260901135001 81 29 2.0 6.0 0.00 0.00 0.00 82 1015.5
20260901134515 81 35 2.0 5.0 0.00 0.00 0.00 83 1015.5
20260901133500 80 334 2.0 6.0 0.00 0.00 0.00 84 1015.5
20260901133020 80 15 3.0 6.0 0.00 0.00 0.00 85 1015.4
20260901132500 80 13 2.0 5.0 0.00 0.00 0.00 85 1015.3
20260901132000 79 29 1.0 5.0 0.00 0.00 0.00 85 1015.2
20260901131003 79 12 2.0 5.0 0.00 0.00 0.00 85 1015.1